Location: Mansfield Dam
(30.3944°N, 97.9097°W)
Time: 20:46:53
(UTC-05:00)

Daily predictions for brighter satellites

Satellite Brightness Start Highest point End
(mag) Time Altitude Azimuth Time Altitude Azimuth Time Altitude Azimuth
ATLAS 2A CENTAUR R/B 3.8 20:42:58 10° W 20:48:59 74° S 21:13:57 10° E
NOSS 3-4 (A) 4.2 20:57:28 10° NNW 21:04:27 53° ENE 21:11:50 10° SE
NOSS 3-4 (C) 4.2 20:57:34 10° NNW 21:04:32 52° ENE 21:11:55 10° SE
SEDSat Delta rocket 3.8 21:00:38 10° W 21:05:13 41° SSW 21:09:18 10° SE
Cosmos 2333 Rocket 2.5 20:59:35 10° NNW 21:05:14 74° WSW 21:10:49 10° SSE
NOSS 0 Rocket 4.1 21:01:09 10° NNW 21:07:24 80° WSW 21:13:37 10° SSE
Cosmos 1741 Rocket 4.2 21:02:46 10° S 21:07:55 54° ESE 21:13:05 10° NNE
H-2A R/B 3.7 21:05:22 10° S 21:09:02 49° W 21:12:46 10° NNW
Spot 2 Rocket 3.5 21:06:36 10° SSE 21:11:38 76° ENE 21:16:42 10° N
ALOS 4.2 21:07:35 10° SSW 21:11:39 30° W 21:15:44 10° NW
Meteor 2-15 4.4 21:08:23 10° S 21:14:24 75° E 21:20:27 10° N
Cosmos 2084 3.9 21:12:37 10° SW 21:16:42 60° WNW 21:20:34 10° NNE
Helios 1B rocket 2.9 21:13:24 10° NNE 21:17:19 41° E 21:21:13 10° S
YAOGAN 6 4.3 21:15:28 10° ESE 21:17:58 18° ENE 21:20:29 10° NNE
Cosmos 2297 Rocket 3.9 21:17:06 10° SW 21:22:20 38° WNW 21:27:36 10° N
SL-24 DEB 4.4 21:18:20 10° S 21:23:05 80° W 21:27:52 10° N
Helios 1A 3.7 21:21:26 11° SE 21:25:08 36° ENE 21:28:56 10° N
Aureole 2 Rocket 3.7 21:21:25 10° NNW 21:25:11 45° WSW 21:28:40 10° S
Delta 2 Rocket 4.1 21:21:54 10° WSW 21:27:23 75° SSE 21:33:11 10° ENE
Cosmos 2263 Rocket 3.9 21:29:13 11° ESE 21:29:55 12° E 21:31:46 10° ENE
GPS 2-05 Rocket1 2.4 21:27:55 10° WSW 21:31:00 86° SSE 21:34:05 10° ENE
ATLAS 5 CENTAUR R/B 3.2 21:27:12 10° SW 21:31:30 41° WNW 21:36:06 10° NNE
Envisat 3.0 21:31:17 10° SSE 21:36:21 78° ENE 21:41:26 10° N
Cosmos 1356 Rocket 3.8 21:32:42 10° SSE 21:36:43 44° E 21:40:48 10° NNE
Resurs 01 Rocket 2.8 21:33:11 10° S 21:37:21 43° W 21:41:33 10° NNW
Lacrosse 5 4.0 21:36:35 10° N 21:39:24 15° NE 21:42:12 10° ENE
USA 186 2.6 21:37:49 10° SSW 21:39:58 31° W 21:42:02 10° NNW
SL-19 R/B 4.3 21:35:44 10° SSE 21:41:30 82° ENE 21:47:04 10° NNW
Meteor 1-29 2.9 21:38:47 10° NNE 21:42:12 68° E 21:45:39 10° S
Meteor 1-21 Rocket 4.3 21:38:09 10° S 21:43:42 55° E 21:49:09 10° NNE
Cosmos 1459 Rocket 4.3 21:45:59 10° N 21:51:57 46° E 21:55:57 20° SE
Cosmos 2208 Rocket 4.3 21:49:18 10° N 21:54:31 53° ENE 21:57:44 23° SE
RESURS DK-1 4.3 21:51:58 10° NNE 21:54:34 16° ENE 21:55:44 14° E
SAR-Lupe-4 3.6 21:53:06 26° SSE 21:54:55 59° ENE 21:58:27 10° N
H-2A ROCKET BODY 2.1 21:53:04 10° SW 21:55:32 32° SSE 22:01:47 10° E
CZ-3A R/B 3.7 21:55:43 10° SSW 21:56:59 11° S 21:57:21 11° S
Cosmos 2237 Rocket 3.6 21:52:26 10° NW 21:57:30 35° WSW 22:02:33 10° SSW
Palapa 6 Rocket 4.3 21:53:05 10° WSW 21:58:03 32° S 21:59:54 24° SSE
Cosmos 1674 2.6 21:55:35 10° S 21:59:21 84° W 22:03:07 10° N
Cosmos 2100 Rocket 4.1 21:54:35 10° N 22:00:51 61° E 22:05:15 20° SSE
Cosmos 1939 Rocket 3.2 21:59:22 15° S 22:02:34 62° W 22:06:35 10° NNW
Milstar 3 Cent rocket 3.5 21:57:19 10° W 22:03:50 61° SSW 22:12:41 21° ESE
Cosmos 2123 Rocket 4.5 22:01:03 22° SE 22:04:20 39° E 22:10:00 10° NNE
Cosmos 1076 Rocket 3.6 22:00:31 10° S 22:04:52 79° W 22:09:14 10° N
Cosmos 1570 Rocket 4.0 21:59:41 10° NNW 22:04:59 76° ENE 22:08:02 25° SSE
ARGOS 4.1 22:05:26 24° ESE 22:07:33 32° ENE 22:12:18 10° N
Cosmos 2173 Rocket 4.0 22:02:48 10° N 22:08:58 65° E 22:12:52 24° SSE
Cosmos 2061 Rocket 4.1 22:04:53 10° N 22:11:14 62° E 22:15:00 25° SSE
Cosmos 1242 Rocket 2.5 22:09:02 10° N 22:12:45 76° E 22:13:51 43° SSE
Cosmos 1408 Rocket 3.4 22:10:38 24° S 22:13:09 76° E 22:17:28 10° N
SAR-Lupe-1 4.0 22:13:08 38° S 22:14:26 86° WSW 22:18:02 10° NNW
Meteor 2-17 Rocket 4.4 22:09:23 10° N 22:15:34 79° E 22:19:28 24° SSE
Cosmos 1908 3.2 22:14:24 10° N 22:18:16 80° W 22:19:42 37° S
KORONAS-FOTON 4.0 22:17:48 22° SSW 22:20:07 68° W 22:23:54 10° N
USA 234 3.1 22:15:57 10° NE 22:22:30 79° SE 22:29:01 10° SW
SL-16 R/B 2.7 22:17:56 10° NNW 22:23:28 56° WSW 22:26:56 22° S
ERS-1 Rocket 2.9 22:21:48 34° SSE 22:24:03 81° ENE 22:29:06 10° N
Cosmos 2221 3.5 22:21:53 10° NNW 22:26:05 46° W 22:28:52 19° SSW
Cosmos 468 Rocket 4.3 22:22:14 10° N 22:27:12 49° ENE 22:28:27 40° ESE
Cosmos 1725 Rocket 4.3 22:27:23 10° N 22:33:22 48° E 22:35:05 39° ESE
Cosmos 1500 Rocket 4.1 22:34:23 40° E 22:34:23 40° E 22:38:17 10° NNE
Cosmos 1802 Rocket 3.9 22:30:27 10° N 22:36:35 86° W 22:39:43 31° S
Sakura Rocket 4.1 22:27:58 10° W 22:36:36 78° S 22:39:32 36° ESE
Atlas Centaur 2 2.4 22:37:38 10° W 22:39:58 28° SW 22:39:58 28° SW
NOAA 11 4.3 22:43:54 37° S 22:46:03 69° WSW 22:51:28 10° NNW
H-2A R/B 2.3 22:48:33 49° E 22:49:15 52° ENE 22:54:29 10° N
Cosmos 1864 Rocket 4.4 22:49:12 10° N 22:55:34 76° E 22:57:11 52° SSE
CZ-4C R/B 4.1 22:59:53 15° ENE 22:59:53 15° ENE 23:01:00 10° NE
Cosmos 1626 4.1 22:58:40 21° NE 22:58:40 21° NE 23:00:10 10° NNE
MetOp-B 4.4 22:55:36 43° SSW 22:57:12 63° WSW 23:02:32 10° NNW
Meteor 1-11 4.2 22:57:30 57° SSE 22:58:41 76° E 23:04:30 10° N
ERBS 4.4 22:57:15 10° NNW 22:59:06 22° NNE 22:59:06 22° NNE
Cosmos 2016 Rocket 4.2 22:54:02 10° NNW 23:00:10 65° W 23:02:38 37° SSW
Meteor 2-10 4.1 22:55:27 10° N 23:01:09 81° E 23:02:02 65° SSE
Cosmos 1328 Rocket 3.5 22:57:01 10° N 23:01:02 77° NNW 23:01:02 77° NNW
Cosmos 1151 Rocket 3.9 23:00:14 10° N 23:03:28 40° NE 23:03:28 40° NE
USA 245 4.1 23:05:26 44° NW 23:05:26 44° NW 23:08:27 10° NNW
Cosmos 371 Rocket 3.2 23:01:14 10° NNW 23:05:55 79° NE 23:05:55 79° NE
Cosmos 1726 3.2 23:03:04 10° NNW 23:06:02 41° WNW 23:06:02 41° WNW
H-2A R/B 3.9 23:07:51 21° NE 23:07:51 21° NE 23:10:00 10° NNE
Cosmos 1743 Rocket 4.2 23:07:01 47° WSW 23:07:30 50° W 23:11:43 10° N
Cosmos 1515 Rocket 3.9 23:04:16 10° N 23:07:50 58° NNE 23:07:50 58° NNE
YAOGAN 11 4.5 23:09:43 57° WSW 23:09:48 58° W 23:14:16 10° NNW
Cosmos 2263 Rocket 2.4 23:10:47 34° SW 23:13:08 64° WNW 23:18:41 10° NNE
SPOT 5 3.3 23:14:52 53° WSW 23:15:13 54° W 23:20:08 10° NNW
Cosmos 1300 3.9 23:13:05 10° NNW 23:15:58 39° WNW 23:15:58 39° WNW
Meteor 1-27 4.2 23:15:00 10° N 23:20:44 73° ENE 23:20:44 73° ENE
Cosmos 1354 Rocket 3.9 23:21:04 82° WNW 23:21:04 82° WNW 23:26:15 10° NNE
Cosmos 2228 Rocket 3.7 23:17:59 10° NNW 23:22:09 52° WNW 23:22:09 52° WNW
Lacrosse 5 2.0 23:17:49 10° NW 23:22:21 71° WNW 23:22:21 71° WNW
Cosmos 2058 3.9 23:24:03 46° NNW 23:24:03 46° NNW 23:27:11 10° N
Cosmos 2233 Rocket 3.8 23:17:50 10° N 23:24:02 80° E 23:24:21 77° SE
Cosmos 1814 Rocket 4.4 23:23:17 10° NNW 23:28:27 57° W 23:28:27 57° W
Landsat 7 4.2 23:30:44 61° NNW 23:30:44 61° NNW 23:34:41 10° NNW
Meteor 2-12 Rocket 4.3 23:24:53 10° N 23:30:51 75° ENE 23:30:51 75° ENE
RESURS DK-1 4.1 23:28:57 10° NW 23:31:40 27° W 23:31:40 27° W
Cosmos 841 Rocket 3.7 23:30:48 10° NNW 23:35:19 67° NNW 23:35:19 67° NNW
Cosmos 1763 Rocket 3.9 23:31:36 10° NNW 23:35:59 56° WNW 23:35:59 56° WNW
Terra 2.6 23:46:09 49° NNW 23:46:09 49° NNW 23:49:37 10° NNW
Cosmos 1844 Rocket 4.2 23:49:03 25° NE 23:49:03 25° NE 23:51:34 10° NE
